Find Praetorian SDA-614

NORAD ID: 65577 Int'l Des: 2025-203 Owner: SDA Country: US operational
LEOCIRCULARPOLAR

Live Position

Loading 3D Globe...

About Praetorian SDA-614

Description loading...

Upcoming Passes

Passes for default location (London). Set your location on the main map for personalized predictions.

Altitude History

Loading altitude history...

Two-Line Element Set

1 65577U 25203N 26106.62009046 .00000008 00000-0 -38812-5 0 9990
2 65577 81.3004 67.6730 0007486 8.0296 352.0980 13.84770076 30190
Epoch: Apr 16, 2026 • Age: 24 hours

Current Status

Altitude 975.8 km
Velocity 7.36 km/s
Sub-Earth Point -73.79°S, 147.29°W
Launch Date Sep 10, 2025
Age 0.5 years
Type other

Technical Details

Classification Payload
Mass 300.00 kg
Dry Mass 300.00 kg
Total Mass 300.00 kg
Length 1.00 m
Diameter 0.60 m
Span 2.00 m
Shape Box + panels
Manufacturer YORKSS
Bus Type S-Class
Phase Status In Orbit
Owner/State SDA/US

Most Searched